Location: ?????
(55.8833°N, 37.6500°E)
Time: 19:44:47
(UTC+00:00)

STARLINK-79 - Pass Details

Date: 27 February 2020
Orbit: 529 x 531 km, 53.0° (Epoch: 30 March)

Event Time Altitude Azimuth Distance (km) Brightness Sun altitude
Rises 17:06:34 0° 269° (W) 2,671 8.6 -18.7°
Reaches altitude 10° 17:08:48 10° 265° (W) 1,781 7.3 -19.0°
Maximum altitude 17:12:45 55° 188° (S) 646 3.8 -19.5°
Enters shadow 17:13:27 47° 149° (SSE) 710 3.8 -19.6°
